CST,Max TemperatureF,Mean TemperatureF,Min TemperatureF,Max Dew PointF,MeanDew PointF,Min DewpointF,Max Humidity, Mean Humidity, Min Humidity, Max Sea Level PressureIn, Mean Sea Level PressureIn, Min Sea Level PressureIn, Max VisibilityMiles, Mean VisibilityMiles, Min VisibilityMiles, Max Wind SpeedMPH, Mean Wind SpeedMPH, Max Gust SpeedMPH,PrecipitationIn, CloudCover, Events, WindDirDegrees
2012-12-1,66,58,51,55,53,52,100,82,68,30.15,30.08,30.00,10,10,10,20,10,29,0.00,2,,174
2012-12-2,68,64,59,64,60,52,100,91,68,30.07,30.03,29.99,10,10,10,18,13,28,0.00,4,,185
2012-12-3,68,64,60,64,62,57,100,93,77,30.06,30.01,29.95,10,10,10,23,13,30,0.00,4,,180
2012-12-4,64,52,41,63,51,41,100,94,72,30.31,30.15,29.97,10,10,4,10,7,20,0.02,3,Rain,309
2012-12-5,57,48,39,45,39,30,100,77,36,30.38,30.30,30.20,10,10,3,7,2,,0.00,0,,58
2012-12-6,53,46,39,50,45,39,100,88,67,30.09,29.99,29.94,10,10,10,8,4,,0.00,7,,134
2012-12-7,60,53,46,57,53,46,100,97,82,29.94,29.87,29.81,10,6,0,7,3,,0.01,7,Fog-Rain,164
2012-12-8,51,48,44,52,48,45,100,100,100,29.99,29.95,29.86,10,8,2,12,4,,0.00,8,Rain,5
2012-12-9,53,48,42,54,48,43,100,100,100,29.93,29.83,29.75,10,5,0,15,7,23,0.03,8,Fog-Rain-Thunderstorm,337
2012-12-10,42,35,28,43,27,21,100,85,69,30.08,29.96,29.86,10,10,10,15,10,22,0.00,7,,304
2012-12-11,39,31,23,28,22,12,100,73,33,30.24,30.15,30.08,10,10,10,10,3,,0.00,0,,182
2012-12-12,48,36,23,30,22,-2,100,67,12,30.36,30.31,30.24,10,10,10,8,3,,0.00,0,,162
2012-12-13,51,38,26,34,25,7,100,65,16,30.35,30.29,30.21,10,10,10,16,7,22,0.00,0,,164
2012-12-14,53,42,32,37,30,16,100,60,24,30.25,30.17,30.00,10,10,10,13,5,,0.00,0,,167
2012-12-15,59,52,46,57,52,37,100,96,66,30.00,29.78,29.64,10,10,7,25,13,33,0.22,5,Rain,178
2012-12-16,53,46,39,54,47,39,100,95,76,29.78,29.73,29.67,10,10,2,7,4,,0.00,0,,211
2012-12-17,42,40,39,43,41,39,100,100,100,29.82,29.72,29.67,10,4,0,12,5,,0.00,8,Fog,326
2012-12-18,55,44,33,43,39,34,100,82,47,29.91,29.81,29.71,10,10,7,18,7,25,0.00,0,,191
2012-12-19,57,44,30,54,41,30,100,92,77,30.00,29.87,29.57,10,9,7,15,8,18,0.11,3,Rain-Thunderstorm,96
2012-12-20,57,42,28,57,38,21,100,87,66,29.94,29.57,29.29,10,9,5,33,17,44,0.62,6,Rain-Snow-Thunderstorm,248
2012-12-21,39,32,26,21,12,-11,74,50,12,30.30,30.18,29.95,10,10,10,23,15,34,0.00,0,,289
2012-12-22,44,32,21,34,18,-4,100,58,15,30.31,30.18,29.98,10,10,10,13,4,21,0.00,0,,170
2012-12-23,57,47,37,39,31,21,100,61,26,29.97,29.92,29.84,10,10,10,12,6,,0.00,0,,198
2012-12-24,39,32,24,39,32,25,100,99,93,30.13,29.96,29.80,10,8,5,14,6,18,0.00,7,,316
2012-12-25,35,30,24,30,28,23,100,90,75,30.23,30.10,29.90,10,10,7,38,10,62,0.00,7,,18
2012-12-26,33,32,28,32,29,27,100,91,80,30.17,29.98,29.81,10,9,3,33,22,72,0.00,8,Snow,330
2012-12-27,35,32,28,30,27,25,100,90,65,30.23,30.15,30.08,10,10,10,20,7,30,0.00,5,,114
2012-12-28,37,34,30,36,32,30,100,99,93,30.07,29.97,29.89,10,7,0,8,4,,0.00,7,Rain-Snow,129
2012-12-29,32,24,15,32,27,16,100,97,80,30.36,30.14,29.90,10,7,1,13,2,17,0.00,5,Snow,274
2012-12-30,35,24,12,28,25,12,100,85,65,30.47,30.37,30.26,10,10,1,12,7,17,0.15,0,,171
2012-12-31,35,34,32,34,32,27,100,92,75,30.25,30.16,30.07,10,5,1,12,6,16,0.25,6,Rain-Snow,193